Location: *
(41.7492°S, 135.4150°W)
Time: 22:07:38
(UTC+00:00)

METEOR M2 - Pass Details

Date: 07 July 2022
Orbit: 818 x 827 km, 98.4° (Epoch: 17 August)

Event Time Altitude Azimuth Distance (km) Brightness Sun altitude
Rises 13:48:51 0° 55° (NE) 3,354 ? -29.0°
Reaches altitude 10° 13:51:43 10° 71° (ENE) 2,429 ? -28.5°
Maximum altitude 13:55:37 21° 117° (ESE) 1,795 ? -27.7°
Drops below altitude 10° 13:59:32 10° 164° (SSE) 2,448 ? -27.0°
Sets 14:02:26 0° 179° (S) 3,388 ? -26.5°
